Starlink 5602

operational
NORAD ID: 55743 Int'l Des: 2023-028 Owner: SPXS Country: US Constellation: starlink
LEOCIRCULAR

Über Starlink 5602

Beschreibung wird geladen...

Live-Position

3D-Globus wird geladen...

Nächste Überflüge

Höhenverlauf

Altitude vs Time

uPlot chart will show altitude changes over time

Zweizeiliger Elementsatz

1 55743U 23028C 25353.56177651 .00005268 00000-0 44860-3 0 9991
2 55743 70.0019 86.6556 0003278 278.0744 82.0043 14.98362121154038
Epoch: 19. Dez. 2025 • Age: 9 hours

Aktueller Status

Höhe 576.5 km
Geschwindigkeit 7.57 km/s
Subsatellitenpunkt 29.18°N, 167.01°W
Startdatum 3. März 2023
Alter 2.7 years
Typ internet

Technische Details

Klassifizierung Payload
Masse 305.00 kg
Trockenmasse 290.00 kg
Gesamtmasse 305.00 kg
Länge 0.20 m
Durchmesser 2.80 m
Spannweite 9.00 m
Form Box + pan
Hersteller SPXS
Bus-Typ Starlink
Phasenstatus In Orbit
Besitzer/Staat SPXS/US

Große Konstellationen

Loading constellations...